Regional Weather Roundup
Issued by NWS

Home | Current Version | Previous Version | Graphics & Text | Print | Product List | Glossary On
Versions: 1 2 3 4 5 6 7 8 9 10 11 12 13 14 15 16 17 18 19 20 21 22 23 24 25 26 27 28
000
ASUS45 KPSR 020410
RWRAZ

ARIZONA HOURLY REGIONAL WEATHER ROUNDUP
NATIONAL WEATHER SERVICE PHOENIX AZ
900 PM MST SUN MAY 01 2016

NOTE: FAIR INDICATES FEW OR NO CLOUDS BELOW 12,000 FEET WITH NO
SIGNIFICANT WEATHER AND/OR OBSTRUCTIONS TO VISIBILITY.

AZZ001>003-036-020500-
NORTHWEST ARIZONA

CITY           SKY/WX    TMP DP  RH WIND       PRES   REMARKS
BULLHEAD CITY  CLEAR     75  37  25 E13       29.91R
KINGMAN        CLEAR     57  32  38 SE12      30.01R
$$

AZZ004>008-015-016-018-020500-
NORTH CENTRAL ARIZONA

CITY           SKY/WX    TMP DP  RH WIND       PRES   REMARKS
GRAND CANYON   PTCLDY    41  33  73 E5        30.14R
WILLIAMS       PTCLDY    43  36  75 S7        30.19R
PRESCOTT       PTCLDY    47  42  83 CALM      30.08R
FLAGSTAFF      PTCLDY    34  34 100 CALM      30.14R
PAYSON         PTCLDY    48  39  71 N5        30.11R
PAGE           PTCLDY    53  39  59 E3        30.10R
$$

AZZ009>014-017-020500-
NORTHEAST ARIZONA

CITY           SKY/WX    TMP DP  RH WIND       PRES   REMARKS
WINSLOW        MOCLDY    48  44  86 CALM      30.12R
SAINT JOHNS    CLOUDY    45  39  79 SE5       30.13R
WINDOW ROCK    CLOUDY    40  34  79 E6        30.18R
SHOW LOW       CLOUDY    39  37  93 E6        30.15R WCI  35
$$

AZZ023-020500-
GREATER PHOENIX AREA

CITY           SKY/WX    TMP DP  RH WIND       PRES   REMARKS
PHOENIX        CLEAR     76  38  25 N5        29.91R
BUCKEYE        CLEAR     70  41  35 CALM      29.93R
LUKE AFB       CLEAR     72  44  37 CALM      29.91R
DEER VALLEY    CLEAR     71  36  27 CALM      29.93R
SCOTTSDALE     CLEAR     73  36  25 CALM      29.94R
MESA-GATEWAY   PTCLDY    70  39  32 CALM      29.93R
CHANDLER       CLEAR     72  37  28 CALM      29.92R
$$

AZZ027-028-020500-
SOUTHWEST MARICOPA COUNTY AND PINAL COUNTY

CITY           SKY/WX    TMP DP  RH WIND       PRES   REMARKS
CASA GRANDE    CLEAR     64  37  36 N5        29.95R
GILA BEND      FAIR      73  43  34 NE3       29.91R
$$

AZZ503-504-507>509-020500-
SOUTHEAST ARIZONA

CITY           SKY/WX    TMP DP  RH WIND       PRES   REMARKS
TUCSON         CLEAR     68  36  30 NW3       29.98R
DAVIS-MONTHAN  CLEAR     65  37  34 NW5       29.97R
NOGALES        CLEAR     56  31  38 E6        30.02R
SIERRA VISTA   CLEAR     57  30  36 W6        30.06R
DOUGLAS        PTCLDY    58  28  32 NW8       30.03R
SAFFORD        CLEAR     63  33  32 W9        29.98R
$$

AZZ020-021-025-026-031-020500-
SOUTHWEST ARIZONA

CITY           SKY/WX    TMP DP  RH WIND       PRES   REMARKS
YUMA           CLEAR     77  42  28 CALM      29.87R
$$

CAZ031-033-041-043-047-048-061-020500-
SOUTHERN CALIFORNIA

CITY           SKY/WX    TMP DP  RH WIND       PRES   REMARKS
DOWNTOWN L.A.  CLEAR     59  53  80 W5        29.97R
L.A. AIRPORT   PTCLDY    58  52  80 W9        29.99R
SAN DIEGO      MOCLDY    62  51  67 W5        30.00R
BURBANK        CLEAR     59  51  75 S7        29.97R
ONTARIO        PTCLDY    61  50  67 W8        29.96R
RIVERSIDE      CLEAR     62  51  67 W3        29.96R
PALM SPRINGS   CLEAR     76  43  30 N3        29.90R
EL CENTRO NAS  CLEAR    N/A N/A N/A W5        29.87R
IMPERIAL       CLEAR     73  45  36 CALM      29.85R
BLYTHE         CLEAR     77  40  26 CALM      29.87R
NEEDLES        CLEAR     76  43  30 SE12      29.90R
$$

NVZ020-UTZ003-020500-
SOUTHERN NEVADA-UTAH

CITY           SKY/WX    TMP DP  RH WIND       PRES   REMARKS
LAS VEGAS      PTCLDY    70  41  34 SW5       29.91R
SALT LAKE CITY MOCLDY    55  28  35 SW5       30.08R
$$

NMZ009-TXZ055-020500-
NEW MEXICO-WEST TEXAS

CITY           SKY/WX    TMP DP  RH WIND       PRES   REMARKS
ALBUQUERQUE    CLOUDY    42  33  70 E12       30.25R
EL PASO        CLEAR     50  34  54 NE16G22   30.14R
$$


........................KEY........................
SKY/WX - SKY CONDITION/WEATHER
TMP    - TEMPERATURE IN FAHRENHEIT
DP     - DEW POINT IN FAHRENHEIT
RH     - RELATIVE HUMIDITY IN PERCENT
WIND   - DIRECTION AND SPEED IN MILES PER HOUR (MPH)
VRB    - VARIABLE WIND DIRECTION
PRES   - MEAN SEA LEVEL PRESSURE IN INCHES OF MERCURY
         F - FALLING PRESSURE   R - RISING PRESSURE
         S - STEADY PRESSURE
VSB    - VISIBILITY IN MILES
HX     - HEAT INDEX IN FAHRENHEIT
WCI    - WIND CHILL INDEX IN FAHRENHEIT
TC     - TEMPERATURE IN CELSIUS WHICH IS ALSO KNOWN AS
         TEMPERATURE IN CENTIGRADE
AFB    - AIR FORCE BASE
         LUKE AFB IS LUKE AIR FORCE BASE
         DAVIS-MONTHAN IS DAVIS-MONTHAN AIR FORCE BASE
NAS    - NAVAL AIR STATION
         EL CENTRO NAS IS EL CENTRO NAVAL AIR STATION
N/A    - NOT AVAILABLE





USA.gov is the U.S. government's official web portal to all federal, state and local government web resources and services.